Time,TemperatureF,DewpointF,PressureIn,WindDirection,WindDirectionDegrees,WindSpeedMPH,WindSpeedGustMPH,Humidity,HourlyPrecipIn,Conditions,Clouds,dailyrainin,SolarRadiationWatts/m^2,SoftwareType,DateUTC
2013-12-13 00:02:00,40.0,39.0,-100.00,SSE,152,1.0,6.0,97,0.00,,,0.48,0.000000,,2013-12-13 08:02:00,
2013-12-13 00:11:00,40.0,39.0,-100.00,SSE,152,1.0,6.0,97,0.00,,,0.48,0.000000,,2013-12-13 08:11:00,
2013-12-13 00:22:00,40.0,39.0,-100.00,SSE,152,1.0,6.0,97,0.00,,,0.48,0.000000,,2013-12-13 08:22:00,
2013-12-13 00:52:00,40.0,39.0,-100.00,SSW,202,1.0,5.0,97,0.00,,,0.48,0.000000,,2013-12-13 08:52:00,
2013-12-13 01:02:00,40.0,39.0,-100.00,SSW,202,1.0,5.0,97,0.00,,,0.48,0.000000,,2013-12-13 09:02:00,
2013-12-13 01:12:00,40.0,39.0,-100.00,SSW,202,1.0,5.0,97,0.00,,,0.48,0.000000,,2013-12-13 09:12:00,
2013-12-13 01:22:00,40.0,39.0,-100.00,SSW,202,1.0,5.0,97,0.00,,,0.48,0.000000,,2013-12-13 09:22:00,
2013-12-13 01:54:00,40.0,39.0,-100.00,SE,124,1.0,4.0,97,0.00,,,0.48,0.000000,,2013-12-13 09:54:00,
2013-12-13 02:03:00,40.0,39.0,-100.00,SE,124,1.0,4.0,97,0.00,,,0.48,0.000000,,2013-12-13 10:03:00,
2013-12-13 02:12:00,40.0,39.0,-100.00,SE,124,1.0,4.0,97,0.00,,,0.48,0.000000,,2013-12-13 10:12:00,
2013-12-13 02:23:00,40.0,39.0,-100.00,SE,124,1.0,4.0,97,0.00,,,0.48,0.000000,,2013-12-13 10:23:00,
2013-12-13 02:53:00,40.0,39.0,-100.00,South,172,1.0,5.0,98,0.00,,,0.48,0.000000,,2013-12-13 10:53:00,
2013-12-13 03:02:00,40.0,39.0,-100.00,South,172,1.0,5.0,98,0.00,,,0.48,0.000000,,2013-12-13 11:02:00,
2013-12-13 03:12:00,40.0,39.0,-100.00,South,172,1.0,5.0,98,0.00,,,0.48,0.000000,,2013-12-13 11:12:00,
2013-12-13 03:22:00,40.0,39.0,-100.00,South,172,1.0,5.0,98,0.00,,,0.48,0.000000,,2013-12-13 11:22:00,
2013-12-13 03:53:00,40.0,39.0,-100.00,SSE,168,1.0,5.0,97,0.00,,,0.48,0.000000,,2013-12-13 11:53:00,
2013-12-13 04:02:00,40.0,39.0,-100.00,SSE,168,1.0,5.0,97,0.00,,,0.48,0.000000,,2013-12-13 12:02:00,
2013-12-13 04:11:00,40.0,39.0,-100.00,SSE,168,1.0,5.0,97,0.00,,,0.48,0.000000,,2013-12-13 12:11:00,
2013-12-13 04:53:00,40.0,39.0,-100.00,South,170,1.0,4.0,95,0.00,,,0.48,0.000000,,2013-12-13 12:53:00,
2013-12-13 05:01:00,40.0,39.0,-100.00,South,170,1.0,4.0,95,0.00,,,0.48,0.000000,,2013-12-13 13:01:00,
2013-12-13 05:12:00,40.0,39.0,-100.00,South,170,1.0,4.0,95,0.00,,,0.48,0.000000,,2013-12-13 13:12:00,
2013-12-13 05:22:00,40.0,39.0,-100.00,South,170,1.0,4.0,95,0.00,,,0.48,0.000000,,2013-12-13 13:22:00,
2013-12-13 05:52:00,40.0,39.0,-100.00,SSE,167,2.0,5.0,95,0.01,,,-99.99,0.000000,,2013-12-13 13:52:00,
2013-12-13 06:02:00,40.0,39.0,-100.00,SSE,167,2.0,5.0,95,0.01,,,-99.99,0.000000,,2013-12-13 14:02:00,
2013-12-13 06:11:00,40.0,39.0,-100.00,SSE,167,2.0,5.0,95,0.01,,,-99.99,0.000000,,2013-12-13 14:11:00,
2013-12-13 06:22:00,40.0,39.0,-100.00,SSE,167,2.0,5.0,95,0.01,,,-99.99,0.000000,,2013-12-13 14:22:00,
2013-12-13 06:53:00,40.0,38.0,-100.00,SE,133,1.0,3.0,93,0.00,,,0.48,0.000000,,2013-12-13 14:53:00,
2013-12-13 07:02:00,40.0,38.0,-100.00,SE,133,1.0,3.0,93,0.00,,,0.48,0.000000,,2013-12-13 15:02:00,
2013-12-13 07:12:00,40.0,38.0,-100.00,SE,133,1.0,3.0,93,0.00,,,0.48,0.000000,,2013-12-13 15:12:00,
2013-12-13 07:21:00,40.0,38.0,-100.00,SE,133,1.0,3.0,93,0.00,,,0.48,0.000000,,2013-12-13 15:21:00,
2013-12-13 07:53:00,39.0,37.0,-100.00,North,-999,0.0,3.0,94,0.00,,,0.47,0.000000,,2013-12-13 15:53:00,
2013-12-13 08:03:00,39.0,37.0,-100.00,North,-999,0.0,3.0,94,0.00,,,0.47,0.000000,,2013-12-13 16:03:00,
2013-12-13 08:13:00,39.0,37.0,-100.00,North,-999,0.0,3.0,94,0.00,,,0.47,0.000000,,2013-12-13 16:13:00,
2013-12-13 08:23:00,39.0,37.0,-100.00,North,-999,0.0,3.0,94,0.00,,,0.47,0.000000,,2013-12-13 16:23:00,
2013-12-13 08:53:00,39.0,38.0,-100.00,North,-999,0.0,2.0,96,0.00,,,0.47,3.000000,,2013-12-13 16:53:00,
2013-12-13 09:02:00,39.0,38.0,-100.00,North,-999,0.0,2.0,96,0.00,,,0.47,3.000000,,2013-12-13 17:02:00,
2013-12-13 09:12:00,39.0,38.0,-100.00,North,-999,0.0,2.0,96,0.00,,,0.47,3.000000,,2013-12-13 17:12:00,
2013-12-13 09:22:00,39.0,38.0,-100.00,North,-999,0.0,2.0,96,0.00,,,0.47,3.000000,,2013-12-13 17:22:00,
2013-12-13 09:52:00,40.0,39.0,-100.00,SE,129,2.0,4.0,96,0.00,,,0.45,39.000000,,2013-12-13 17:52:00,
2013-12-13 10:02:00,40.0,39.0,-100.00,SE,129,2.0,4.0,96,0.00,,,0.45,39.000000,,2013-12-13 18:02:00,
2013-12-13 10:12:00,40.0,39.0,-100.00,SE,129,2.0,4.0,96,0.00,,,0.45,39.000000,,2013-12-13 18:12:00,
2013-12-13 10:21:00,40.0,39.0,-100.00,SE,129,2.0,4.0,96,0.00,,,0.45,39.000000,,2013-12-13 18:21:00,
2013-12-13 10:52:00,42.0,39.0,-100.00,North,-999,0.0,3.0,88,0.00,,,0.42,68.000000,,2013-12-13 18:52:00,
2013-12-13 11:02:00,42.0,39.0,-100.00,North,-999,0.0,3.0,88,0.00,,,0.42,68.000000,,2013-12-13 19:02:00,
2013-12-13 11:12:00,42.0,39.0,-100.00,North,-999,0.0,3.0,88,0.00,,,0.42,68.000000,,2013-12-13 19:12:00,
2013-12-13 11:21:00,42.0,39.0,-100.00,North,-999,0.0,3.0,88,0.00,,,0.42,68.000000,,2013-12-13 19:21:00,
2013-12-13 11:52:00,43.0,39.0,-100.00,NW,309,1.0,7.0,85,0.00,,,0.35,95.000000,,2013-12-13 19:52:00,
2013-12-13 12:02:00,43.0,39.0,-100.00,NW,309,1.0,7.0,85,0.00,,,0.35,95.000000,,2013-12-13 20:02:00,
2013-12-13 12:11:00,43.0,39.0,-100.00,NW,309,1.0,7.0,85,0.00,,,0.35,95.000000,,2013-12-13 20:11:00,
2013-12-13 12:22:00,43.0,39.0,-100.00,NW,309,1.0,7.0,85,0.00,,,0.35,95.000000,,2013-12-13 20:22:00,
2013-12-13 12:53:00,45.0,41.0,-100.00,North,356,1.0,3.0,86,0.00,,,0.15,153.000000,,2013-12-13 20:53:00,
2013-12-13 13:02:00,45.0,41.0,-100.00,North,356,1.0,3.0,86,0.00,,,0.15,153.000000,,2013-12-13 21:02:00,
2013-12-13 13:11:00,45.0,41.0,-100.00,North,356,1.0,3.0,86,0.00,,,0.15,153.000000,,2013-12-13 21:11:00,
2013-12-13 13:21:00,45.0,41.0,-100.00,North,356,1.0,3.0,86,0.00,,,0.15,153.000000,,2013-12-13 21:21:00,
2013-12-13 13:53:00,44.0,40.0,-100.00,South,181,1.0,5.0,87,0.00,,,0.09,170.000000,,2013-12-13 21:53:00,
2013-12-13 14:03:00,44.0,40.0,-100.00,South,181,1.0,5.0,87,0.00,,,0.09,170.000000,,2013-12-13 22:03:00,
2013-12-13 14:13:00,44.0,40.0,-100.00,South,181,1.0,5.0,87,0.00,,,0.09,170.000000,,2013-12-13 22:13:00,
2013-12-13 14:23:00,44.0,40.0,-100.00,South,181,1.0,5.0,87,0.00,,,0.09,170.000000,,2013-12-13 22:23:00,
2013-12-13 14:53:00,42.0,41.0,-100.00,ENE,68,2.0,4.0,95,0.00,,,0.08,78.000000,,2013-12-13 22:53:00,
2013-12-13 15:03:00,42.0,41.0,-100.00,ENE,68,2.0,4.0,95,0.00,,,0.08,78.000000,,2013-12-13 23:03:00,
2013-12-13 15:12:00,42.0,41.0,-100.00,ENE,68,2.0,4.0,95,0.00,,,0.08,78.000000,,2013-12-13 23:12:00,
2013-12-13 15:22:00,42.0,41.0,-100.00,ENE,68,2.0,4.0,95,0.00,,,0.08,78.000000,,2013-12-13 23:22:00,
2013-12-13 15:53:00,41.0,40.0,-100.00,North,-999,0.0,3.0,97,0.00,,,0.05,51.000000,,2013-12-13 23:53:00,
2013-12-13 16:02:00,41.0,40.0,-100.00,North,-999,0.0,3.0,97,0.00,,,0.05,51.000000,,2013-12-14 00:02:00,
2013-12-13 16:11:00,41.0,40.0,-100.00,North,-999,0.0,3.0,97,0.00,,,0.05,51.000000,,2013-12-14 00:11:00,
2013-12-13 16:21:00,41.0,40.0,-100.00,North,-999,0.0,3.0,97,0.00,,,0.05,51.000000,,2013-12-14 00:21:00,
2013-12-13 16:52:00,40.0,39.0,-100.00,ESE,122,1.0,3.0,98,0.00,,,0.03,13.000000,,2013-12-14 00:52:00,
2013-12-13 17:02:00,40.0,39.0,-100.00,ESE,122,1.0,3.0,98,0.00,,,0.03,13.000000,,2013-12-14 01:02:00,
2013-12-13 17:11:00,40.0,39.0,-100.00,ESE,122,1.0,3.0,98,0.00,,,0.03,13.000000,,2013-12-14 01:11:00,
2013-12-13 17:22:00,40.0,39.0,-100.00,ESE,122,1.0,3.0,98,0.00,,,0.03,13.000000,,2013-12-14 01:22:00,
2013-12-13 17:52:00,39.0,38.0,-100.00,North,-999,0.0,3.0,98,0.00,,,0.02,0.000000,,2013-12-14 01:52:00,
2013-12-13 18:01:00,39.0,38.0,-100.00,North,-999,0.0,3.0,98,0.00,,,0.02,0.000000,,2013-12-14 02:01:00,
2013-12-13 18:11:00,39.0,38.0,-100.00,North,-999,0.0,3.0,98,0.00,,,0.02,0.000000,,2013-12-14 02:11:00,
2013-12-13 18:21:00,39.0,38.0,-100.00,North,-999,0.0,3.0,98,0.00,,,0.02,0.000000,,2013-12-14 02:21:00,
2013-12-13 18:52:00,39.0,38.0,-100.00,East,87,1.0,3.0,98,0.00,,,0.02,0.000000,,2013-12-14 02:52:00,
2013-12-13 19:02:00,39.0,38.0,-100.00,East,87,1.0,3.0,98,0.00,,,0.02,0.000000,,2013-12-14 03:02:00,
2013-12-13 19:12:00,39.0,38.0,-100.00,East,87,1.0,3.0,98,0.00,,,0.02,0.000000,,2013-12-14 03:12:00,
2013-12-13 19:21:00,39.0,38.0,-100.00,East,87,1.0,3.0,98,0.00,,,0.02,0.000000,,2013-12-14 03:21:00,
2013-12-13 19:54:00,39.0,38.0,-100.00,NNW,344,1.0,3.0,98,0.00,,,0.02,0.000000,,2013-12-14 03:54:00,
2013-12-13 20:03:00,39.0,38.0,-100.00,NNW,344,1.0,3.0,98,0.00,,,0.02,0.000000,,2013-12-14 04:03:00,
2013-12-13 20:13:00,39.0,38.0,-100.00,NNW,344,1.0,3.0,98,0.00,,,0.02,0.000000,,2013-12-14 04:13:00,
2013-12-13 20:23:00,39.0,38.0,-100.00,NNW,344,1.0,3.0,98,0.00,,,0.02,0.000000,,2013-12-14 04:23:00,
2013-12-13 20:53:00,39.0,38.0,-100.00,SW,226,1.0,4.0,98,0.00,,,0.02,0.000000,,2013-12-14 04:53:00,
2013-12-13 21:03:00,39.0,38.0,-100.00,SW,226,1.0,4.0,98,0.00,,,0.02,0.000000,,2013-12-14 05:03:00,
2013-12-13 21:12:00,39.0,38.0,-100.00,SW,226,1.0,4.0,98,0.00,,,0.02,0.000000,,2013-12-14 05:12:00,
2013-12-13 21:22:00,39.0,38.0,-100.00,SW,226,1.0,4.0,98,0.00,,,0.02,0.000000,,2013-12-14 05:22:00,
2013-12-13 21:53:00,38.0,37.0,-100.00,North,349,2.0,7.0,98,0.00,,,0.01,0.000000,,2013-12-14 05:53:00,
2013-12-13 22:02:00,38.0,37.0,-100.00,North,349,2.0,7.0,98,0.00,,,0.01,0.000000,,2013-12-14 06:02:00,
2013-12-13 22:11:00,38.0,37.0,-100.00,North,349,2.0,7.0,98,0.00,,,0.01,0.000000,,2013-12-14 06:11:00,
2013-12-13 22:21:00,38.0,37.0,-100.00,North,349,2.0,7.0,98,0.00,,,0.01,0.000000,,2013-12-14 06:21:00,
2013-12-13 22:52:00,38.0,37.0,-100.00,WSW,252,3.0,14.0,98,0.00,,,0.01,0.000000,,2013-12-14 06:52:00,
2013-12-13 23:02:00,38.0,37.0,-100.00,WSW,252,3.0,14.0,98,0.00,,,0.01,0.000000,,2013-12-14 07:02:00,
2013-12-13 23:12:00,38.0,37.0,-100.00,WSW,252,3.0,14.0,98,0.00,,,0.01,0.000000,,2013-12-14 07:12:00,
2013-12-13 23:22:00,38.0,37.0,-100.00,WSW,252,3.0,14.0,98,0.00,,,0.01,0.000000,,2013-12-14 07:22:00,
2013-12-13 23:52:00,38.0,37.0,-100.00,ESE,119,2.0,5.0,98,0.00,,,0.01,0.000000,,2013-12-14 07:52:00,